Regional Weather Roundup
Issued by NWS

Home | Current Version | Previous Version | Text Only | Print | Product List | Glossary On
Versions: 1 2 3 4 5 6 7 8 9 10 11 12 13 14 15 16 17 18 19 20 21 22 23 24 25 26 27 28 29 30 31 32 33 34 35 36 37 38 39 40 41 42 43 44 45 46 47 48 49 50
000
ASUS46 KSEW 210510
RWRWA

WASHINGTON REGIONAL WEATHER ROUNDUP
NATIONAL WEATHER SERVICE SEATTLE WA
1000 PM PDT SAT SEP 20 2014

NOTE:"FAIR" INDICATES FEW OR NO CLOUDS BELOW 12,000 FEET WITH NO
SIGNIFICANT WEATHER AND/OR OBSTRUCTIONS TO VISIBILITY.

WAZ505-507>509-210600-
SEATTLE, TACOMA, EVERETT, AND VICINITY

CITY           SKY/WX    TMP DP  RH WIND       PRES   REMARKS
EVERETT        CLEAR     62  55  77 N5        29.92F
BOEING FIELD   CLEAR     66  55  67 W5        29.89F
RENTON         CLEAR     67  61  81 NW14      29.88S
SEATAC AIRPORT CLEAR     64  56  75 N9        29.90F
JBLM-MCCHORD   CLEAR     60  55  83 NE3       29.89F
PUYALLUP       NOT AVBL
JBLM-FT LEWIS  CLEAR     64  56  77 NW6       29.89S
TACOMA NARROWS CLEAR     63  55  75 N12       29.89F
$$

WAZ001-503-506-510-514-515-210600-
NORTH INTERIOR

CITY           SKY/WX    TMP DP  RH WIND       PRES   REMARKS
BELLINGHAM     CLEAR     58  55  90 CALM      29.91S
FRIDAY HARBOR  CLEAR     58  53  84 NW3       29.92S
EASTSOUND      CLEAR     57  57 100 CALM      29.91R
PORT ANGELES     N/A     58  53  84 S5        29.92F
NAS WHIDBEY    PTCLDY    57  53  86 CALM      29.92S
BURLINGTON     CLEAR     59  57  94 NW5       29.92S
$$

WAZ020-022-039-040-504-511-512-210600-
SOUTHWEST INTERIOR

CITY           SKY/WX    TMP DP  RH WIND       PRES   REMARKS
SHELTON        CLEAR     63  54  72 CALM      29.88S
OLYMPIA        CLEAR     62  55  77 N7        29.89S
CHEHALIS       FAIR      66  59  77 CALM      29.87S
KELSO          CLEAR     68  55  64 CALM      29.88R
VANCOUVER      CLEAR     75  50  41 NW5       29.82R
SCAPPOOSE, OR  CLEAR     67  55  65 W5        29.82R
PORTLAND, OR   MOCLDY    81  50  33 E12       29.81R
$$

WAZ021-516-517-210600-
WASHINGTON COAST

CITY           SKY/WX    TMP DP  RH WIND       PRES   REMARKS
FORKS          CLEAR     65  53  65 E3        29.83F
HOQUIAM        CLEAR     67  57  70 E10       29.83S
ASTORIA, OR    CLEAR     70  59  68 E7        29.80R
$$

WAZ019-023-024-040-518-519-210600-
CASCADE MOUNTAINS AND COLUMBIA GORGE

CITY           SKY/WX    TMP DP  RH WIND       PRES   REMARKS
STAMPEDE PASS  NOT AVBL
TROUTDALE, OR  CLEAR     80  49  33 E15       29.81R
THE DALLES, OR CLEAR     69  48  47 CALM      29.93R
$$

WAZ026-027-041>044-520-521-210600-
EAST SLOPES

CITY           SKY/WX    TMP DP  RH WIND       PRES   REMARKS
OMAK           CLEAR     65  38  36 NW6       30.05R
WENATCHEE      CLEAR     72  46  39 NW6       30.01S
ELLENSBURG     CLEAR     62  46  55 VRB3      30.03S
YAKIMA         CLEAR     63  49  60 W10       30.00R
$$

WAZ028-034-035-210600-
COLUMBIA BASIN

CITY           SKY/WX    TMP DP  RH WIND       PRES   REMARKS
EPHRATA        CLEAR     66  42  41 N6        30.00R
MOSES LAKE     CLEAR     64  42  44 N7        30.00S
PASCO          CLEAR     66  53  63 CALM      29.93S
HERMISTON, OR  CLEAR     66  51  58 S5        29.92S
$$

WAZ036>038-210600-
NORTHEAST WASHINGTON

CITY           SKY/WX    TMP DP  RH WIND       PRES   REMARKS
SPOKANE GEIGER CLEAR     66  44  45 NE6       30.06R
SPOKANE FELTS  CLEAR     62  43  49 NE3       30.05S
FAIRCHILD AFB  CLEAR     65  43  43 NE7       30.06S
COEURDALENE,ID CLEAR     64  45  48 NE12      30.06S
DEER PARK      CLEAR     59  44  57 NE5       30.07S
$$

WAZ029>033-210600-
SOUTHEAST WASHINGTON

CITY           SKY/WX    TMP DP  RH WIND       PRES   REMARKS
PULLMAN        CLEAR     58  34  40 CALM      30.05S
LEWISTON, ID   CLEAR     71  40  32 S7        29.97S
WALLA WALLA    CLEAR     70  45  40 E7        29.95S
PENDLETON, OR  CLEAR     67  46  47 SE6       29.96S
$$



USA.gov is the U.S. government's official web portal to all federal, state and local government web resources and services.